User: anonymous   Login
Location: Unspecified
(0.0000°N, 0.0000°E)
Time: 23:19:42
(UTC+00:00)
Language:

CUTE-I - Orbit

View from above orbital plane
View from above orbital plane
View from above satellite
View from above satellite

Ground track
Ground track

The orbit data is extracted from the following two-line orbital elements,

1 27844U 03031E   17141.90083146 +.00000074 +00000-0 +53165-4 0  9992
2 27844 098.6898 151.2897 0010894 066.8523 293.3802 14.22036563720581
Epoch (UTC): 21 May 2017 21:37:11
Eccentricity: 0.0010894
inclination: 98.6898°
perigee height: 810 km
apogee height: 826 km
right ascension of ascending node: 151.2897°
argument of perigee: 66.8523°
revolutions per day: 14.22036563
mean anomaly at epoch: 293.3802°
orbit number at epoch: 72058

The dashed part of the orbit path shows where the satellite is in the earth's shadow,  

DLR